CZ-3B DEB, 39334

Orbit data source: Space-Track

CZ-3B DEB, 39334 is space debris in HEO originally from a launch on Sat, 04 Sep 2010 UTC launched from the Xichang Space Center, China (XSC). Debris objects in space refer to the collection of defunct objects orbiting the Earth. Examples of debris include non-operational satellites, rocket bodies, and fragments generated from explosions, collisions, or faulty payload assembly.

Loading next visibility...
Identifier
39334, 2010-042F
Orbit
HEO
Country
Flag of CNCN / PRC
Related business
Manufacturer
CALT
Mission
Spacecraft
Bus & Motor
Unknown
Mass
Unknown
Launch date (UTC)
2010-09-04 (15 years ago)
Launch vehicle
Unknown
Launch site
Xichang Space Center, China (XSC)
Object type
Payload
Rocket body
Debris
Shape & HBR
Unknown
Radar Cross Section
Medium (>0.1 m² and <1 m²)

Expand to show TLE details & history
Last TLE update: 3 days ago

TLE from 3 days ago
0 CZ-3B DEB
1 39334U 10042F   25257.44239957 -.00000029  00000-0  00000-0 0  9995
2 39334  26.7221 306.4771 7332186 293.3834  28.5210  1.86380345 92685
Epoch: 2025-09-14T10:37Z
TLE epoch observation values (Epoch: 2025-09-14T10:37:03.322Z)
Latitude
20.81227°
Longitude
-157.40405°
Altitude
13,636.95 km
Speed
5.054 km/s
True Right ascension
23h 42m 05s
True Declination
20° 46' 18"
Sunlit
Object was in daylight at epoch
Visualization orbit readout
Latitude
Unknown
Longitude
Unknown
Altitude
Unknown
Speed
Unknown
Apparent Right ascension
Unknown
Apparent Declination
Unknown
Sunlit
N/A
Visualization observer readout
Local Sidereal Time
15:57:37
Azimuth
Unknown
Elevation
Unknown
Doppler factor
Unknown
Orbital elements
Apogee altitude
41,969.641 km
Perigee altitude
1,063.676 km
Semi-major axis
27,894.796 km
Eccentricity
0.73322
Inclination
26.7221°
RAAN
306.4771°
Arg. of periapsis
293.3834°
True anomaly
118.94065°
Mean anomaly
28.521°
Eccentric anomaly
67.2681°
Mean motion
0.46586 °/min
Orbital period
772.76 mins
BSTAR
0
Loading maneuver chart data...
Computing Atmospheric mass density...
Loading historical data...
Loading historical data...
Loading historical data...
Loading historical data...
Loading historical data...
Loading historical data...
Loading historical data...

Documentation

Showing up to 5 results
|